sat.trackr.live / text

‹ back to catalog

STARLINK-31629

NORAD 59255 · 2024-050B

PAYLOAD ACTIVE UNKNOWN

§ Identity

Operator
Country
US
Launch date
2024-03-19
Launch site
AFWTR
Launch vehicle
Mass (kg)
RCS (m²)

Purposes: comms

External: N2YO · Heavens-Above · Gunter

§ Orbital elements

Epoch: 2026-09-20T11:58:11.024544Z

Period
93.85 min
Inclination
53.1640°
Eccentricity
0.0001320
Mean motion
15.34397291 rev/d
Perigee alt
461.8 km
Apogee alt
463.6 km
Semi-major
6,840.8 km
B*
4.5468e-5
RAAN
355.4961°
Arg perigee
82.2618°
Mean anomaly
277.8535°
Rev number
14,038

§ Raw data

STARLINK-316291 59255U 24050B   26263.49873871  .00001160  00000+0  45468-4 0  99912 59255  53.1640 355.4961 0001320  82.2618 277.8535 15.34397291140380

JSON: /api/v1/satellites/59255 · /tle

For live sub-satellite position, see the globe view (requires WebGL).

§ Visibility from observer

Set your observer location to see the next 7 days of passes ≥ 10°. The values pass through the URL so the page stays shareable.

No JS? Fill the form by hand. The geolocation button needs JavaScript.